| time (UTC) | temp F | wind direction | speed knots | gust knots | rain 1hr in | rain 24hr in | rain mn in | humidity % | barometer mb |
| 20260507075746 | 60 | 193 | 0.9 | 0.9 | 0.00 | 0.00 | 0.00 | 88 | 1015.2 |
| 20260507075243 | 60 | 197 | 2.6 | 4.3 | 0.00 | 0.00 | 0.00 | 88 | 1014.8 |
| 20260507074739 | 60 | 198 | 0.0 | 0.9 | 0.00 | 0.00 | 0.00 | 89 | 1015.1 |
| 20260507074237 | 60 | 195 | 0.0 | 0.0 | 0.00 | 0.00 | 0.00 | 89 | 1015.3 |
| 20260507073733 | 60 | 196 | 0.9 | 0.9 | 0.00 | 0.00 | 0.00 | 89 | 1014.6 |
| 20260507073230 | 60 | 194 | 0.9 | 1.7 | 0.00 | 0.00 | 0.00 | 89 | 1014.9 |
| 20260507072728 | 60 | 195 | 0.9 | 0.9 | 0.00 | 0.00 | 0.00 | 89 | 1014.8 |
| 20260507072225 | 60 | 193 | 0.0 | 0.9 | 0.00 | 0.00 | 0.00 | 89 | 1015.0 |
| 20260507071723 | 60 | 193 | 0.0 | 0.9 | 0.00 | 0.00 | 0.00 | 88 | 1015.1 |
| 20260507071219 | 60 | 186 | 1.7 | 2.6 | 0.00 | 0.00 | 0.00 | 88 | 1014.9 |
| 20260507070716 | 60 | 209 | 0.9 | 0.9 | 0.00 | 0.00 | 0.00 | 88 | 1014.6 |
| 20260507070213 | 60 | 215 | 2.6 | 2.6 | 0.00 | 0.00 | 0.00 | 88 | 1014.7 |
| 20260507065709 | 60 | 208 | 3.5 | 4.3 | 0.00 | 0.00 | 0.00 | 88 | 1014.4 |
| 20260507065206 | 60 | 213 | 1.7 | 2.6 | 0.00 | 0.00 | 0.00 | 88 | 1014.7 |
| 20260507064704 | 60 | 208 | 0.0 | 0.9 | 0.00 | 0.00 | 0.00 | 88 | 1014.9 |
| 20260507064203 | 60 | 206 | 0.9 | 0.9 | 0.00 | 0.00 | 0.00 | 88 | 1014.8 |
| 20260507063659 | 60 | 209 | 1.7 | 1.7 | 0.00 | 0.00 | 0.00 | 88 | 1014.6 |
| 20260507063156 | 60 | 205 | 2.6 | 2.6 | 0.00 | 0.00 | 0.00 | 87 | 1014.7 |
| 20260507062653 | 60 | 203 | 4.3 | 6.1 | 0.00 | 0.00 | 0.00 | 87 | 1015.0 |
| 20260507062150 | 60 | 198 | 3.5 | 4.3 | 0.00 | 0.00 | 0.00 | 87 | 1014.6 |
| 20260507061648 | 60 | 214 | 1.7 | 1.7 | 0.00 | 0.00 | 0.00 | 87 | 1014.7 |
| 20260507061146 | 61 | 196 | 1.7 | 2.6 | 0.00 | 0.00 | 0.00 | 87 | 1014.9 |
| 20260507060644 | 61 | 194 | 0.0 | 0.9 | 0.00 | 0.00 | 0.00 | 87 | 1015.1 |
| 20260507060140 | 61 | 184 | 2.6 | 2.6 | 0.00 | 0.00 | 0.00 | 87 | 1014.5 |
| 20260507055635 | 61 | 210 | 0.9 | 0.9 | 0.00 | 0.00 | 0.00 | 87 | 1014.6 |
| 20260507055132 | 61 | 213 | 2.6 | 2.6 | 0.00 | 0.00 | 0.00 | 87 | 1014.5 |
| 20260507054628 | 61 | 210 | 3.5 | 4.3 | 0.00 | 0.00 | 0.00 | 87 | 1014.2 |
| 20260507054125 | 61 | 244 | 7.0 | 7.8 | 0.00 | 0.00 | 0.00 | 87 | 1013.7 |
| 20260507053623 | 61 | 202 | 3.5 | 4.3 | 0.00 | 0.00 | 0.00 | 87 | 1014.3 |
| 20260507053121 | 61 | 209 | 1.7 | 1.7 | 0.00 | 0.00 | 0.00 | 87 | 1014.5 |
| 20260507052619 | 61 | 212 | 2.6 | 4.3 | 0.00 | 0.00 | 0.00 | 87 | 1014.5 |
| 20260507052115 | 61 | 204 | 2.6 | 2.6 | 0.00 | 0.00 | 0.00 | 87 | 1014.4 |
| 20260507051613 | 61 | 208 | 1.7 | 1.7 | 0.00 | 0.00 | 0.00 | 87 | 1014.4 |
| 20260507051109 | 61 | 198 | 3.5 | 5.2 | 0.00 | 0.00 | 0.00 | 87 | 1014.5 |
| 20260507050606 | 61 | 217 | 0.9 | 0.9 | 0.00 | 0.00 | 0.00 | 87 | 1014.6 |
| 20260507045559 | 62 | 211 | 1.7 | 2.6 | 0.00 | 0.00 | 0.00 | 87 | 1014.4 |
| 20260507045057 | 62 | 200 | 2.6 | 4.3 | 0.00 | 0.00 | 0.00 | 87 | 1014.4 |
| 20260507044553 | 62 | 214 | 2.6 | 2.6 | 0.00 | 0.00 | 0.00 | 87 | 1014.5 |
| 20260507044050 | 62 | 216 | 1.7 | 1.7 | 0.00 | 0.00 | 0.00 | 87 | 1014.2 |
| 20260507043545 | 62 | 200 | 2.6 | 2.6 | 0.00 | 0.00 | 0.00 | 87 | 1013.7 |
| 20260507043043 | 62 | 202 | 4.3 | 5.2 | 0.00 | 0.00 | 0.00 | 87 | 1014.0 |
| 20260507042539 | 62 | 213 | 1.7 | 2.6 | 0.00 | 0.00 | 0.00 | 86 | 1014.1 |
| 20260507042035 | 62 | 209 | 2.6 | 5.2 | 0.00 | 0.00 | 0.00 | 86 | 1014.1 |
| 20260507041532 | 62 | 213 | 1.7 | 2.6 | 0.00 | 0.00 | 0.00 | 86 | 1014.1 |
| 20260507041029 | 62 | 222 | 0.9 | 1.7 | 0.00 | 0.00 | 0.00 | 86 | 1014.0 |
| 20260507040525 | 62 | 159 | 6.1 | 9.6 | 0.00 | 0.00 | 0.00 | 86 | 1013.7 |
| 20260507040021 | 62 | 208 | 2.6 | 4.3 | 0.00 | 0.00 | 0.00 | 86 | 1014.0 |
| 20260507035518 | 62 | 200 | 5.2 | 7.0 | 0.00 | 0.00 | 0.00 | 86 | 1013.6 |
| 20260507035014 | 62 | 190 | 4.3 | 6.1 | 0.00 | 0.00 | 0.00 | 86 | 1013.3 |
| 20260507034511 | 62 | 211 | 1.7 | 2.6 | 0.00 | 0.00 | 0.00 | 86 | 1013.5 |
| 20260507034009 | 62 | 200 | 6.1 | 8.7 | 0.00 | 0.00 | 0.00 | 86 | 1013.5 |
| 20260507033507 | 62 | 211 | 4.3 | 5.2 | 0.00 | 0.00 | 0.00 | 86 | 1013.6 |
| 20260507033004 | 62 | 228 | 5.2 | 7.0 | 0.00 | 0.00 | 0.00 | 86 | 1013.4 |
| 20260507032501 | 62 | 213 | 6.1 | 7.0 | 0.00 | 0.00 | 0.00 | 86 | 1013.7 |
| 20260507031956 | 62 | 213 | 2.6 | 2.6 | 0.00 | 0.00 | 0.00 | 86 | 1013.6 |
| 20260507031453 | 62 | 224 | 1.7 | 1.7 | 0.00 | 0.00 | 0.00 | 86 | 1013.4 |
| 20260507030950 | 62 | 208 | 4.3 | 7.0 | 0.00 | 0.00 | 0.00 | 86 | 1013.6 |
| 20260507030447 | 62 | 209 | 4.3 | 7.0 | 0.00 | 0.00 | 0.00 | 86 | 1013.7 |
| 20260507025944 | 62 | 224 | 0.9 | 1.7 | 0.00 | 0.00 | 0.00 | 86 | 1013.8 |
| 20260507025441 | 62 | 210 | 0.9 | 0.9 | 0.00 | 0.00 | 0.00 | 86 | 1013.6 |
| 20260507024939 | 62 | 189 | 2.6 | 4.3 | 0.00 | 0.00 | 0.00 | 86 | 1013.6 |
| 20260507024437 | 62 | 188 | 5.2 | 6.1 | 0.00 | 0.00 | 0.00 | 87 | 1014.0 |
| 20260507023932 | 62 | 212 | 0.0 | 0.9 | 0.00 | 0.00 | 0.00 | 87 | 1013.3 |
| 20260507023429 | 62 | 211 | 3.5 | 4.3 | 0.00 | 0.00 | 0.00 | 87 | 1013.1 |
| 20260507022926 | 62 | 187 | 0.9 | 1.7 | 0.00 | 0.00 | 0.00 | 87 | 1013.1 |
| 20260507022424 | 62 | 180 | 1.7 | 1.7 | 0.00 | 0.00 | 0.00 | 87 | 1013.5 |
| 20260507021919 | 62 | 183 | 4.3 | 6.1 | 0.00 | 0.00 | 0.00 | 87 | 1013.5 |
| 20260507021414 | 62 | 207 | 0.9 | 0.9 | 0.00 | 0.00 | 0.00 | 87 | 1013.1 |
| 20260507020912 | 62 | 239 | 2.6 | 2.6 | 0.00 | 0.00 | 0.00 | 87 | 1013.2 |
| 20260507020408 | 62 | 222 | 3.5 | 4.3 | 0.00 | 0.00 | 0.00 | 87 | 1013.0 |
| 20260507015906 | 62 | 195 | 2.6 | 5.2 | 0.00 | 0.00 | 0.00 | 87 | 1013.1 |
| 20260507015404 | 62 | 195 | 4.3 | 5.2 | 0.00 | 0.00 | 0.00 | 87 | 1013.0 |
| 20260507014901 | 62 | 214 | 0.9 | 0.9 | 0.00 | 0.00 | 0.00 | 87 | 1012.6 |
| 20260507014356 | 62 | 197 | 0.9 | 1.7 | 0.00 | 0.00 | 0.00 | 87 | 1012.6 |
| 20260507013853 | 62 | 234 | 1.7 | 2.6 | 0.00 | 0.00 | 0.00 | 87 | 1012.5 |
| 20260507013350 | 62 | 220 | 1.7 | 2.6 | 0.00 | 0.00 | 0.00 | 87 | 1012.6 |
| 20260507012848 | 62 | 199 | 0.9 | 1.7 | 0.00 | 0.00 | 0.00 | 86 | 1012.6 |
| 20260507012343 | 62 | 200 | 2.6 | 4.3 | 0.00 | 0.00 | 0.00 | 86 | 1012.7 |
| 20260507011841 | 62 | 206 | 2.6 | 4.3 | 0.00 | 0.00 | 0.00 | 86 | 1012.2 |
| 20260507011338 | 62 | 210 | 0.9 | 0.9 | 0.00 | 0.00 | 0.00 | 86 | 1012.4 |
| 20260507010832 | 62 | 210 | 1.7 | 6.1 | 0.00 | 0.00 | 0.00 | 86 | 1012.4 |
| 20260507010328 | 62 | 184 | 1.7 | 2.6 | 0.00 | 0.00 | 0.00 | 86 | 1012.2 |
| 20260507005825 | 63 | 189 | 1.7 | 2.6 | 0.00 | 0.00 | 0.00 | 85 | 1011.9 |
| 20260507005322 | 63 | 218 | 0.9 | 4.3 | 0.00 | 0.00 | 0.00 | 85 | 1011.9 |
| 20260507004819 | 63 | 207 | 0.9 | 0.9 | 0.00 | 0.00 | 0.00 | 85 | 1012.2 |
| 20260507004316 | 63 | 208 | 0.0 | 0.0 | 0.00 | 0.00 | 0.00 | 85 | 1012.1 |
| 20260507003813 | 63 | 170 | 4.3 | 6.1 | 0.00 | 0.00 | 0.00 | 84 | 1011.9 |
| 20260507003307 | 63 | 219 | 1.7 | 1.7 | 0.00 | 0.00 | 0.00 | 84 | 1011.8 |
| 20260507002758 | 63 | 188 | 4.3 | 5.2 | 0.00 | 0.00 | 0.00 | 84 | 1011.8 |
| 20260507002254 | 63 | 195 | 3.5 | 4.3 | 0.00 | 0.00 | 0.00 | 84 | 1012.1 |
| 20260507001751 | 63 | 214 | 1.7 | 2.6 | 0.00 | 0.00 | 0.00 | 84 | 1012.0 |
| 20260507001249 | 64 | 204 | 0.9 | 1.7 | 0.00 | 0.00 | 0.00 | 83 | 1012.0 |
| 20260507000745 | 64 | 184 | 3.5 | 5.2 | 0.00 | 0.00 | 0.00 | 84 | 1012.1 |
| 20260507000241 | 64 | 221 | 1.7 | 2.6 | 0.00 | 0.00 | 0.00 | 84 | 1011.8 |
| 20260506235738 | 64 | 200 | 3.5 | 7.0 | 0.00 | 0.00 | 0.00 | 84 | 1011.8 |
| 20260506235233 | 64 | 184 | 0.9 | 1.7 | 0.00 | 0.00 | 0.00 | 83 | 1011.6 |
| 20260506234730 | 64 | 200 | 1.7 | 1.7 | 0.00 | 0.00 | 0.00 | 84 | 1011.6 |
| 20260506234227 | 64 | 221 | 5.2 | 6.1 | 0.00 | 0.00 | 0.00 | 84 | 1011.5 |
| 20260506233725 | 64 | 198 | 1.7 | 2.6 | 0.00 | 0.00 | 0.00 | 84 | 1011.4 |
| 20260506233221 | 65 | 202 | 4.3 | 6.1 | 0.00 | 0.00 | 0.00 | 83 | 1011.4 |
| 20260506232718 | 65 | 196 | 7.0 | 8.7 | 0.00 | 0.00 | 0.00 | 82 | 1010.9 |
| 20260506232213 | 65 | 208 | 4.3 | 6.1 | 0.00 | 0.00 | 0.00 | 82 | 1011.2 |
| 20260506231710 | 65 | 172 | 2.6 | 5.2 | 0.00 | 0.00 | 0.00 | 82 | 1011.2 |
| 20260506231209 | 65 | 169 | 4.3 | 6.1 | 0.00 | 0.00 | 0.00 | 82 | 1011.3 |
| 20260506230705 | 65 | 165 | 5.2 | 6.1 | 0.00 | 0.00 | 0.00 | 82 | 1010.9 |
| 20260506230202 | 66 | 198 | 5.2 | 7.8 | 0.00 | 0.00 | 0.00 | 81 | 1010.9 |
| 20260506225658 | 66 | 231 | 5.2 | 7.0 | 0.00 | 0.00 | 0.00 | 80 | 1011.1 |
| 20260506225155 | 66 | 205 | 5.2 | 7.0 | 0.00 | 0.00 | 0.00 | 81 | 1010.8 |
| 20260506224652 | 66 | 140 | 2.6 | 2.6 | 0.00 | 0.00 | 0.00 | 81 | 1011.1 |
| 20260506224149 | 67 | 186 | 1.7 | 2.6 | 0.00 | 0.00 | 0.00 | 80 | 1011.2 |
| 20260506223645 | 67 | 149 | 1.7 | 2.6 | 0.00 | 0.00 | 0.00 | 80 | 1011.1 |
| 20260506223141 | 66 | 200 | 0.0 | 0.9 | 0.00 | 0.00 | 0.00 | 81 | 1010.9 |
| 20260506222638 | 67 | 167 | 6.1 | 8.7 | 0.00 | 0.00 | 0.00 | 80 | 1011.2 |
| 20260506222134 | 66 | 135 | 2.6 | 2.6 | 0.00 | 0.00 | 0.00 | 81 | 1010.6 |
| 20260506221632 | 66 | 201 | 3.5 | 5.2 | 0.00 | 0.00 | 0.00 | 81 | 1010.9 |
| 20260506221130 | 67 | 195 | 6.1 | 7.8 | 0.00 | 0.00 | 0.00 | 80 | 1010.8 |
| 20260506220626 | 68 | 167 | 6.1 | 9.6 | 0.00 | 0.00 | 0.00 | 79 | 1010.8 |
| 20260506220121 | 68 | 179 | 4.3 | 5.2 | 0.00 | 0.00 | 0.00 | 79 | 1010.5 |
| 20260506215618 | 69 | 194 | 3.5 | 5.2 | 0.00 | 0.00 | 0.00 | 77 | 1010.9 |
| 20260506215113 | 71 | 234 | 6.1 | 12.2 | 0.00 | 0.00 | 0.00 | 75 | 1010.4 |
| 20260506214611 | 71 | 192 | 4.3 | 7.0 | 0.00 | 0.00 | 0.00 | 76 | 1010.6 |
| 20260506214108 | 70 | 146 | 3.5 | 5.2 | 0.00 | 0.00 | 0.00 | 78 | 1010.7 |
| 20260506213606 | 72 | 234 | 4.3 | 6.1 | 0.00 | 0.00 | 0.00 | 76 | 1010.5 |
| 20260506213103 | 73 | 195 | 4.3 | 7.8 | 0.00 | 0.00 | 0.00 | 75 | 1010.5 |
| 20260506212600 | 73 | 180 | 1.7 | 5.2 | 0.00 | 0.00 | 0.00 | 74 | 1010.5 |
| 20260506212055 | 73 | 198 | 4.3 | 6.1 | 0.00 | 0.00 | 0.00 | 74 | 1010.6 |
| 20260506211551 | 73 | 150 | 2.6 | 5.2 | 0.00 | 0.00 | 0.00 | 76 | 1010.4 |
| 20260506211048 | 73 | 137 | 7.0 | 8.7 | 0.00 | 0.00 | 0.00 | 74 | 1010.3 |
| 20260506210545 | 74 | 218 | 4.3 | 7.0 | 0.00 | 0.00 | 0.00 | 74 | 1010.6 |
| 20260506210041 | 74 | 159 | 4.3 | 8.7 | 0.00 | 0.00 | 0.00 | 75 | 1010.4 |
| 20260506205538 | 74 | 190 | 2.6 | 4.3 | 0.00 | 0.00 | 0.00 | 75 | 1010.4 |
| 20260506205033 | 73 | 212 | 7.0 | 13.9 | 0.00 | 0.00 | 0.00 | 76 | 1010.5 |
| 20260506204532 | 75 | 191 | 4.3 | 6.1 | 0.00 | 0.00 | 0.00 | 74 | 1010.5 |
| 20260506204028 | 75 | 197 | 1.7 | 4.3 | 0.00 | 0.00 | 0.00 | 75 | 1010.3 |
| 20260506203527 | 75 | 136 | 8.7 | 12.2 | 0.00 | 0.00 | 0.00 | 74 | 1010.6 |
| 20260506203023 | 74 | 155 | 7.0 | 11.3 | 0.00 | 0.00 | 0.00 | 75 | 1010.2 |
| 20260506202520 | 74 | 211 | 3.5 | 4.3 | 0.00 | 0.00 | 0.00 | 76 | 1010.3 |
| 20260506202016 | 76 | 192 | 2.6 | 4.3 | 0.00 | 0.00 | 0.00 | 74 | 1010.3 |
| 20260506201514 | 75 | 196 | 3.5 | 6.1 | 0.00 | 0.00 | 0.00 | 77 | 1010.3 |
| 20260506201011 | 73 | 167 | 4.3 | 6.1 | 0.00 | 0.00 | 0.00 | 80 | 1010.4 |
| 20260506200507 | 73 | 192 | 2.6 | 2.6 | 0.00 | 0.00 | 0.00 | 81 | 1010.7 |
| 20260506200004 | 73 | 191 | 4.3 | 6.1 | 0.00 | 0.00 | 0.00 | 81 | 1010.8 |
| 20260506195501 | 73 | 179 | 6.1 | 7.0 | 0.00 | 0.00 | 0.00 | 81 | 1010.8 |
| 20260506194956 | 74 | 207 | 1.7 | 1.7 | 0.00 | 0.00 | 0.00 | 81 | 1010.5 |
| 20260506194454 | 75 | 188 | 5.2 | 7.8 | 0.00 | 0.00 | 0.00 | 78 | 1010.5 |
| 20260506193951 | 79 | 203 | 3.5 | 4.3 | 0.00 | 0.00 | 0.00 | 76 | 1010.4 |
| 20260506193448 | 81 | 208 | 2.6 | 2.6 | 0.00 | 0.00 | 0.00 | 75 | 1010.2 |
| 20260506192945 | 81 | 198 | 0.9 | 0.9 | 0.00 | 0.00 | 0.00 | 74 | 1010.2 |
| 20260506192442 | 81 | 229 | 1.7 | 1.7 | 0.00 | 0.00 | 0.00 | 74 | 1009.9 |
| 20260506191938 | 81 | 214 | 0.9 | 0.9 | 0.00 | 0.00 | 0.00 | 74 | 1010.2 |
| 20260506191435 | 82 | 221 | 0.9 | 0.9 | 0.00 | 0.00 | 0.00 | 74 | 1010.1 |
| 20260506190931 | 82 | 234 | 0.9 | 0.9 | 0.00 | 0.00 | 0.00 | 73 | 1010.2 |
| 20260506190428 | 82 | 217 | 0.0 | 0.9 | 0.00 | 0.00 | 0.00 | 74 | 1010.4 |
| 20260506185925 | 82 | 214 | 0.0 | 0.0 | 0.00 | 0.00 | 0.00 | 73 | 1010.4 |
| 20260506185422 | 82 | 219 | 0.9 | 0.9 | 0.00 | 0.00 | 0.00 | 71 | 1010.2 |
| 20260506184919 | 83 | 232 | 1.7 | 1.7 | 0.00 | 0.00 | 0.00 | 71 | 1010.5 |
| 20260506184416 | 83 | 222 | 0.9 | 0.9 | 0.00 | 0.00 | 0.00 | 71 | 1010.5 |
| 20260506183914 | 83 | 195 | 0.9 | 0.9 | 0.00 | 0.00 | 0.00 | 71 | 1010.5 |
| 20260506183409 | 83 | 217 | 1.7 | 1.7 | 0.00 | 0.00 | 0.00 | 71 | 1010.4 |
| 20260506182906 | 83 | 215 | 0.9 | 2.6 | 0.00 | 0.00 | 0.00 | 71 | 1010.5 |
| 20260506182403 | 83 | 204 | 2.6 | 4.3 | 0.00 | 0.00 | 0.00 | 70 | 1010.3 |
| 20260506181900 | 84 | 230 | 0.9 | 1.7 | 0.00 | 0.00 | 0.00 | 71 | 1010.5 |
| 20260506181358 | 84 | 218 | 0.9 | 0.9 | 0.00 | 0.00 | 0.00 | 71 | 1010.8 |
| 20260506180855 | 84 | 193 | 0.9 | 1.7 | 0.00 | 0.00 | 0.00 | 71 | 1010.7 |
| 20260506180351 | 83 | 202 | 0.9 | 0.9 | 0.00 | 0.00 | 0.00 | 70 | 1010.8 |
| 20260506175848 | 84 | 220 | 0.9 | 0.9 | 0.00 | 0.00 | 0.00 | 72 | 1010.6 |
| 20260506175345 | 83 | 196 | 0.9 | 0.9 | 0.00 | 0.00 | 0.00 | 70 | 1010.8 |
| 20260506174842 | 82 | 218 | 0.9 | 0.9 | 0.00 | 0.00 | 0.00 | 73 | 1010.7 |
| 20260506174339 | 80 | 203 | 0.9 | 1.7 | 0.00 | 0.00 | 0.00 | 75 | 1011.2 |
| 20260506173837 | 80 | 213 | 0.9 | 0.9 | 0.00 | 0.00 | 0.00 | 75 | 1010.7 |
| 20260506173333 | 78 | 202 | 3.5 | 4.3 | 0.00 | 0.00 | 0.00 | 76 | 1010.9 |
| 20260506172830 | 77 | 200 | 0.9 | 0.9 | 0.00 | 0.00 | 0.00 | 78 | 1011.2 |
| 20260506172327 | 76 | 193 | 0.9 | 0.9 | 0.00 | 0.00 | 0.00 | 79 | 1011.2 |
| 20260506171825 | 74 | 221 | 3.5 | 4.3 | 0.00 | 0.00 | 0.00 | 80 | 1011.3 |
| 20260506171321 | 74 | 195 | 0.9 | 1.7 | 0.00 | 0.00 | 0.00 | 82 | 1011.2 |
| 20260506170819 | 73 | 233 | 0.9 | 1.7 | 0.00 | 0.00 | 0.00 | 83 | 1011.3 |
| 20260506170315 | 72 | 208 | 0.9 | 0.9 | 0.00 | 0.00 | 0.00 | 84 | 1011.4 |
| 20260506165814 | 72 | 206 | 1.7 | 1.7 | 0.00 | 0.00 | 0.00 | 84 | 1011.4 |
| 20260506165311 | 71 | 194 | 2.6 | 4.3 | 0.00 | 0.00 | 0.00 | 85 | 1011.3 |
| 20260506164807 | 71 | 204 | 2.6 | 2.6 | 0.00 | 0.00 | 0.00 | 85 | 1011.5 |
| 20260506164304 | 71 | 213 | 4.3 | 7.0 | 0.00 | 0.00 | 0.00 | 85 | 1011.3 |
| 20260506163801 | 71 | 191 | 2.6 | 4.3 | 0.00 | 0.00 | 0.00 | 85 | 1011.3 |
| 20260506163256 | 71 | 175 | 2.6 | 4.3 | 0.00 | 0.00 | 0.00 | 86 | 1011.3 |
| 20260506162752 | 73 | 216 | 5.2 | 6.1 | 0.00 | 0.00 | 0.00 | 85 | 1011.4 |
| 20260506162250 | 77 | 196 | 1.7 | 2.6 | 0.00 | 0.00 | 0.00 | 86 | 1011.3 |
| 20260506161747 | 78 | 223 | 1.7 | 1.7 | 0.00 | 0.00 | 0.00 | 85 | 1011.1 |
| 20260506161245 | 78 | 217 | 2.6 | 4.3 | 0.00 | 0.00 | 0.00 | 85 | 1011.1 |
| 20260506160742 | 78 | 209 | 1.7 | 1.7 | 0.00 | 0.00 | 0.00 | 85 | 1011.2 |
| 20260506160238 | 78 | 189 | 0.0 | 0.9 | 0.00 | 0.00 | 0.00 | 85 | 1011.1 |
| 20260506155737 | 78 | 213 | 0.9 | 0.9 | 0.00 | 0.00 | 0.00 | 85 | 1011.2 |
| 20260506155233 | 77 | 198 | 0.9 | 0.9 | 0.00 | 0.00 | 0.00 | 86 | 1011.2 |
| 20260506153341 | 77 | 240 | 0.0 | 0.0 | 0.00 | 0.00 | 0.00 | 88 | 1011.2 |
| 20260506152838 | 77 | 241 | 0.0 | 0.0 | 0.00 | 0.00 | 0.00 | 89 | 1011.1 |
| 20260506152335 | 76 | 241 | 0.0 | 0.0 | 0.00 | 0.00 | 0.00 | 89 | 1010.6 |
| 20260506151834 | 76 | 241 | 0.9 | 0.9 | 0.00 | 0.00 | 0.00 | 89 | 1010.5 |
| 20260506151330 | 77 | 241 | 0.0 | 0.9 | 0.00 | 0.00 | 0.00 | 89 | 1010.3 |
| 20260506150827 | 76 | 242 | 0.0 | 0.0 | 0.00 | 0.00 | 0.00 | 91 | 1010.6 |
| 20260506150324 | 76 | 233 | 0.0 | 0.0 | 0.00 | 0.00 | 0.00 | 91 | 1010.0 |
| 20260506145821 | 76 | 233 | 0.9 | 0.9 | 0.00 | 0.00 | 0.00 | 91 | 1010.3 |
| 20260506145317 | 75 | 235 | 0.9 | 0.9 | 0.00 | 0.00 | 0.00 | 91 | 1010.3 |
| 20260506144815 | 75 | 223 | 0.0 | 0.9 | 0.00 | 0.00 | 0.00 | 92 | 1010.2 |
| 20260506144311 | 75 | 217 | 0.0 | 0.0 | 0.00 | 0.00 | 0.00 | 92 | 1010.1 |
| 20260506143810 | 75 | 217 | 0.0 | 0.9 | 0.00 | 0.00 | 0.00 | 92 | 1010.0 |
| 20260506143306 | 75 | 217 | 0.9 | 0.9 | 0.00 | 0.00 | 0.00 | 93 | 1010.1 |
| 20260506142804 | 75 | 212 | 0.0 | 0.0 | 0.00 | 0.00 | 0.00 | 93 | 1010.3 |
| 20260506142305 | 75 | 212 | 0.9 | 0.9 | 0.00 | 0.00 | 0.00 | 93 | 1010.3 |
| 20260506141800 | 75 | 236 | 0.0 | 0.0 | 0.00 | 0.00 | 0.00 | 93 | 1010.2 |
| 20260506141258 | 74 | 229 | 0.0 | 0.0 | 0.00 | 0.00 | 0.00 | 94 | 1010.1 |
| 20260506140755 | 74 | 227 | 1.7 | 1.7 | 0.00 | 0.00 | 0.00 | 94 | 1010.1 |
| 20260506140252 | 74 | 210 | 0.9 | 0.9 | 0.00 | 0.00 | 0.00 | 94 | 1010.1 |
| 20260506135749 | 74 | 242 | 0.9 | 0.9 | 0.00 | 0.00 | 0.00 | 94 | 1009.7 |
| 20260506135245 | 74 | 268 | 0.9 | 2.6 | 0.00 | 0.00 | 0.00 | 94 | 1009.8 |
| 20260506134742 | 74 | 236 | 0.0 | 0.0 | 0.00 | 0.00 | 0.00 | 94 | 1009.2 |
| 20260506134239 | 74 | 232 | 0.0 | 0.0 | 0.00 | 0.00 | 0.00 | 94 | 1009.3 |
| 20260506133736 | 74 | 230 | 0.9 | 0.9 | 0.00 | 0.00 | 0.00 | 94 | 1009.1 |
| 20260506133232 | 74 | 225 | 0.0 | 0.9 | 0.00 | 0.00 | 0.00 | 94 | 1009.0 |
| 20260506132729 | 74 | 240 | 1.7 | 2.6 | 0.00 | 0.00 | 0.00 | 94 | 1008.9 |
| 20260506132227 | 74 | 238 | 0.9 | 0.9 | 0.00 | 0.00 | 0.00 | 94 | 1008.9 |
| 20260506131725 | 74 | 238 | 0.0 | 0.9 | 0.00 | 0.00 | 0.00 | 94 | 1009.0 |
| 20260506131220 | 74 | 224 | 0.0 | 0.9 | 0.00 | 0.00 | 0.00 | 94 | 1008.7 |
| 20260506130717 | 74 | 234 | 1.7 | 1.7 | 0.00 | 0.00 | 0.00 | 94 | 1008.9 |
| 20260506130214 | 74 | 237 | 0.0 | 0.9 | 0.00 | 0.00 | 0.00 | 94 | 1008.8 |
| 20260506125712 | 74 | 232 | 0.9 | 0.9 | 0.00 | 0.00 | 0.00 | 93 | 1008.9 |
| 20260506125210 | 75 | 237 | 0.9 | 1.7 | 0.00 | 0.00 | 0.00 | 93 | 1008.6 |
| 20260506124708 | 75 | 214 | 0.0 | 0.9 | 0.00 | 0.00 | 0.00 | 93 | 1008.6 |
| 20260506124206 | 74 | 209 | 0.0 | 0.9 | 0.00 | 0.00 | 0.00 | 94 | 1008.8 |
| 20260506123703 | 74 | 209 | 0.9 | 0.9 | 0.00 | 0.00 | 0.00 | 95 | 1008.5 |
| 20260506123202 | 73 | 214 | 0.0 | 0.9 | 0.00 | 0.00 | 0.00 | 96 | 1008.5 |
| 20260506122658 | 73 | 229 | 0.9 | 0.9 | 0.00 | 0.00 | 0.00 | 96 | 1008.5 |
| 20260506122155 | 73 | 226 | 0.0 | 0.9 | 0.00 | 0.00 | 0.00 | 96 | 1008.8 |
| 20260506121653 | 73 | 226 | 0.9 | 0.9 | 0.00 | 0.00 | 0.00 | 96 | 1008.8 |
| 20260506121149 | 73 | 226 | 0.0 | 0.0 | 0.00 | 0.00 | 0.00 | 96 | 1008.6 |
| 20260506120647 | 73 | 226 | 0.0 | 0.0 | 0.00 | 0.00 | 0.00 | 96 | 1008.6 |
| 20260506120144 | 73 | 226 | 0.0 | 0.0 | 0.00 | 0.00 | 0.00 | 96 | 1008.6 |
| 20260506115643 | 73 | 226 | 0.0 | 0.0 | 0.00 | 0.00 | 0.00 | 96 | 1008.7 |
| 20260506115140 | 73 | 226 | 0.0 | 0.0 | 0.00 | 0.00 | 0.00 | 96 | 1008.6 |
| 20260506114637 | 73 | 226 | 0.0 | 0.0 | 0.00 | 0.00 | 0.00 | 96 | 1008.5 |
| 20260506114135 | 73 | 226 | 0.0 | 0.0 | 0.00 | 0.00 | 0.00 | 96 | 1008.4 |
| 20260506113634 | 73 | 226 | 0.0 | 0.0 | 0.00 | 0.00 | 0.00 | 96 | 1008.5 |
| 20260506113130 | 73 | 226 | 0.0 | 0.0 | 0.00 | 0.00 | 0.00 | 96 | 1008.5 |
| 20260506112626 | 73 | 226 | 0.0 | 0.0 | 0.00 | 0.00 | 0.00 | 96 | 1008.6 |
| 20260506112124 | 73 | 226 | 0.0 | 0.0 | 0.00 | 0.00 | 0.00 | 96 | 1008.6 |
| 20260506111622 | 73 | 226 | 0.0 | 0.0 | 0.00 | 0.00 | 0.00 | 96 | 1008.4 |
| 20260506111119 | 73 | 226 | 0.0 | 0.0 | 0.00 | 0.00 | 0.00 | 96 | 1008.5 |
| 20260506110617 | 73 | 226 | 0.0 | 0.0 | 0.00 | 0.00 | 0.00 | 96 | 1008.3 |
| 20260506110114 | 73 | 226 | 0.0 | 0.0 | 0.00 | 0.00 | 0.00 | 96 | 1008.4 |
| 20260506105610 | 73 | 226 | 0.0 | 0.0 | 0.00 | 0.00 | 0.00 | 96 | 1008.6 |
| 20260506105107 | 73 | 226 | 0.0 | 0.0 | 0.00 | 0.00 | 0.00 | 96 | 1008.5 |
| 20260506104606 | 73 | 226 | 0.0 | 0.0 | 0.00 | 0.00 | 0.00 | 96 | 1008.5 |
| 20260506104103 | 73 | 227 | 0.0 | 0.9 | 0.00 | 0.00 | 0.00 | 96 | 1008.5 |
| 20260506103600 | 73 | 226 | 0.0 | 0.0 | 0.00 | 0.00 | 0.00 | 96 | 1008.4 |
| 20260506103056 | 73 | 226 | 0.9 | 0.9 | 0.00 | 0.00 | 0.00 | 96 | 1008.4 |
| 20260506102555 | 73 | 227 | 0.9 | 0.9 | 0.00 | 0.00 | 0.00 | 96 | 1008.5 |
| 20260506102052 | 73 | 227 | 0.9 | 0.9 | 0.00 | 0.00 | 0.00 | 95 | 1008.3 |
| 20260506101548 | 73 | 222 | 0.9 | 0.9 | 0.00 | 0.00 | 0.00 | 95 | 1008.5 |
| 20260506101046 | 74 | 216 | 0.9 | 0.9 | 0.00 | 0.00 | 0.00 | 94 | 1008.3 |
| 20260506100544 | 74 | 202 | 0.9 | 0.9 | 0.00 | 0.00 | 0.00 | 94 | 1008.5 |
| 20260506100042 | 74 | 200 | 0.9 | 1.7 | 0.00 | 0.00 | 0.00 | 94 | 1008.2 |
| 20260506095540 | 74 | 224 | 0.9 | 0.9 | 0.00 | 0.00 | 0.00 | 93 | 1008.0 |
| 20260506095036 | 74 | 202 | 0.9 | 0.9 | 0.00 | 0.00 | 0.00 | 93 | 1007.9 |
| 20260506094534 | 74 | 204 | 0.0 | 0.0 | 0.00 | 0.00 | 0.00 | 93 | 1008.3 |
| 20260506094032 | 74 | 191 | 0.9 | 1.7 | 0.00 | 0.00 | 0.00 | 93 | 1008.2 |
| 20260506093530 | 74 | 180 | 0.9 | 0.9 | 0.00 | 0.00 | 0.00 | 93 | 1008.2 |
| 20260506093027 | 73 | 175 | 1.7 | 1.7 | 0.00 | 0.00 | 0.00 | 94 | 1008.0 |
| 20260506092525 | 73 | 229 | 0.9 | 0.9 | 0.00 | 0.00 | 0.00 | 94 | 1008.2 |
| 20260506092021 | 73 | 211 | 1.7 | 1.7 | 0.00 | 0.00 | 0.00 | 94 | 1008.0 |
| 20260506091520 | 73 | 269 | 2.6 | 4.3 | 0.00 | 0.00 | 0.00 | 95 | 1008.0 |
| 20260506091016 | 73 | 222 | 0.9 | 0.9 | 0.00 | 0.00 | 0.00 | 95 | 1008.2 |
| 20260506090514 | 73 | 182 | 1.7 | 1.7 | 0.00 | 0.00 | 0.00 | 96 | 1008.0 |
| 20260506090010 | 73 | 210 | 0.9 | 0.9 | 0.00 | 0.00 | 0.00 | 96 | 1007.8 |
| 20260506085507 | 73 | 270 | 0.9 | 0.9 | 0.00 | 0.00 | 0.00 | 96 | 1007.7 |
| 20260506085004 | 73 | 221 | 0.9 | 1.7 | 0.00 | 0.00 | 0.00 | 96 | 1008.2 |
| 20260506084501 | 73 | 238 | 2.6 | 2.6 | 0.00 | 0.00 | 0.00 | 96 | 1007.8 |
| 20260506083957 | 73 | 222 | 1.7 | 1.7 | 0.00 | 0.00 | 0.00 | 96 | 1007.9 |
| 20260506083454 | 73 | 224 | 0.0 | 0.0 | 0.00 | 0.00 | 0.00 | 96 | 1008.2 |
| 20260506082951 | 73 | 241 | 0.9 | 0.9 | 0.00 | 0.00 | 0.00 | 96 | 1008.0 |
| 20260506082448 | 73 | 235 | 0.0 | 0.0 | 0.00 | 0.00 | 0.00 | 95 | 1008.0 |
| 20260506081944 | 74 | 272 | 0.9 | 0.9 | 0.00 | 0.00 | 0.00 | 95 | 1007.7 |
| 20260506081443 | 74 | 231 | 0.0 | 0.0 | 0.00 | 0.00 | 0.00 | 95 | 1007.8 |
| 20260506080939 | 74 | 210 | 0.0 | 0.9 | 0.00 | 0.00 | 0.00 | 94 | 1007.7 |
| 20260506080436 | 75 | 244 | 1.7 | 2.6 | 0.00 | 0.00 | 0.00 | 93 | 1007.7 |